Content
SEND FEEDBACK

Daily
Averages
Monthly
Summary
United States of America

LARIMORE, NORTH DAKOTA


Home > North America > United States > North Dakota
Elevation: 343 meters     Latitude: 47 57N     Longitude: 097 40W

WEATHER
 
SELECT A DAY
Number of Records: 201,103;   Date Range: 1/1/95 - 10/23/14
 
SHARE

PRINT THIS DATA

[ ← Previous Day ]
WEATHER ALMANAC - 14 MARCH, 2014
[ Next Day → ]
[ °F ]   °C
Weather ElementAverageHighLow
Temperature-4.9 °C2.8 °C (2:53 am)-11.7 °C (11:53 pm)
Dewpoint-7.9 °C0 °C (2:53 am)-15 °C (11:53 pm)
Humidity79.9 %93 % (6:35 am)72 % (5:53 pm)
Barometer1009.1 hPa1019 hPa (11:53 pm)999.3 hPa (1:53 am)
Wind Speed28.8 km/h44.4 km/h (8:53 am)
Wind Gust61.2 km/h (7:23 am)
Weather ElementAverage
Visibility15.8 km
Wind DirectionNW (318.5 °)

Weather ElementTotal
Precipitation---
Heating Degree Days22.8 (Base 18.3)
Averaged from 27 records on 14 March, 2014
WEATHER CONDITIONS BREAKOUT
WIND DIRECTION BREAKOUT
WEATHER BY HOUR - 14 MARCH, 2014
[ °F ]   °C
Local TimeTemperatureDewpointHumidityBarometerVisibilityWind DirectionWind SpeedGust SpeedPrecipitationEventsConditions
1:53 AM1.7 °C-1.1 °C82 %999.3 hPa16.1 kmWNW (290°)24.1 km/hScattered Clouds
2:53 AM2.8 °C0 °C82 %999.7 hPa16.1 kmNW (310°)35.2 km/hOvercast
3:49 AM2 °C0 °C87 %999.7 hPa16.1 kmWNW (300°)24.1 km/hOvercast
4:53 AM2.2 °C0 °C86 %1000.7 hPa16.1 kmNW (310°)20.4 km/h0 mmOvercast
5:30 AM1 °C-1 °C87 %1001 hPa16.1 kmNorth (10°)35.2 km/hOvercast
5:53 AM-1 °C-3 °C86 %1001.4 hPa16.1 kmNorth (360°)33.3 km/hOvercast
6:35 AM-3 °C-4 °C93 %1002.7 hPa16.1 kmNorth (360°)31.5 km/h44.4 km/hOvercast
6:53 AM-3.9 °C-5.6 °C88 %1004.4 hPa16.1 kmNorth (360°)37 km/h48.1 km/hOvercast
7:23 AM-4 °C-7 °C80 %1004.1 hPa16.1 kmNorth (350°)38.9 km/h61.2 km/hOvercast
7:53 AM-5.6 °C-8.3 °C82 %1006.1 hPa16.1 kmNorth (360°)40.7 km/h53.8 km/hOvercast
8:53 AM-6.1 °C-9.4 °C78 %1007.5 hPa16.1 kmNorth (350°)44.4 km/h53.8 km/hOvercast
9:53 AM-7.2 °C-10.6 °C77 %1009.1 hPa9.7 kmNNW (340°)37 km/h50.1 km/h0 mmSnowLight Snow
10:53 AM-6.7 °C-10.6 °C74 %1009.8 hPa16.1 kmNorth (350°)37 km/h50.1 km/h0 mmMostly Cloudy
11:53 AM-6.7 °C-10.6 °C74 %1011.2 hPa16.1 kmNorth (350°)33.3 km/h48.1 km/hOvercast
12:53 PM-6.7 °C-10.6 °C74 %1011.5 hPa14.5 kmNorth (350°)37 km/h46.3 km/h0 mmMostly Cloudy
1:53 PM-6.1 °C-10 °C74 %1011.9 hPa14.5 kmNorth (350°)29.6 km/h42.6 km/h0 mmMostly Cloudy
2:53 PM-6 °C-10 °C74 %1010.8 hPa16.1 kmNNW (330°)25.9 km/hMostly Cloudy
3:53 PM-5 °C-8.9 °C74 %1012.9 hPa16.1 kmNNW (340°)25.9 km/hMostly Cloudy
4:40 PM-6 °C-9 °C80 %1012.2 hPa16.1 kmNNW (340°)24.1 km/hScattered Clouds
4:53 PM-5 °C-9 °C74 %1012.2 hPa16.1 kmNNW (340°)29.6 km/hScattered Clouds
5:53 PM-5.6 °C-10 °C72 %1014.6 hPa16.1 kmNorth (350°)22.2 km/hClear
6:53 PM-6.7 °C-10 °C78 %1015.2 hPa16.1 kmNorth (360°)22.2 km/hPartly Cloudy
7:53 PM-8 °C-11 °C79 %1014.6 hPa16.1 kmNorth (10°)20.4 km/hClear
8:53 PM-8.9 °C-11.7 °C81 %1017.3 hPa16.1 kmNorth (360°)18.5 km/hClear
9:53 PM-10.6 °C-12.8 °C84 %1017.9 hPa16.1 kmNorth (350°)14.8 km/hClear
10:53 PM-11 °C-14 °C79 %1016.3 hPa16.1 kmNorth (360°)18.5 km/hClear
11:53 PM-11.7 °C-15 °C77 %1019 hPa16.1 kmNorth (360°)16.7 km/hClear
Hourly data recorded from KGFK, located 0 kilometers away from Larimore, North Dakota







STORIES FROM OUR PARTNERS